Location: Newark
(23.3970°S, 47.6010°W)
Time: 09:02:59
(UTC+00:00)

deb Explorer IX - Pass Details

Date: 26 February 2020
Orbit: 548 x 1100 km, 38.8° (Epoch: 08 April)

Event Time Altitude Azimuth Distance (km) Brightness Sun altitude
Rises 07:02:46 0° 245° (WSW) 3,919 - -27.4°
Reaches altitude 10° 07:05:44 10° 251° (WSW) 2,939 - -26.8°
Maximum altitude 07:12:28 43° 319° (NW) 1,425 - -25.4°
Exits shadow 07:13:42 39° 345° (NNW) 1,481 ? -25.1°
Drops below altitude 10° 07:18:37 10° 28° (NNE) 2,672 ? -24.1°
Sets 07:21:13 0° 35° (NE) 3,532 ? -23.6°
